Flag for Russia Weather past 2 weeks in Yuzhno-Sakhalinsk, Russia

Now
66 °F

Fog.


Feels Like: 66 °F
Forecast: 60 / 70 °F
Wind: 3 mph from Southeast

Location: Yuzhno Airport-Sakhalinsk

Current Time: Jul 25, 2014 at 7:01:06 AM

Latest Report: Jul 25, 2014 at 6:30 AM


Visibility: 3 mi

Pressure: 29.53 "Hg

Humidity: 100%

Dew point: 66 °F

Location of Yuzhno-SakhalinskLocation

Historic Weather in Yuzhno-Sakhalinsk — Graph

°F

Yuzhno-Sakhalinsk temperature yesterday

Maximum temperature yesterday: 79 °F (at 1:30 PM)
Minimum temperature yesterday: 63 °F (at 6:30 AM)
Average temperature yesterday: 70 °F

Past Weeks' High & Low Weather Summary

 TemperatureHumidityPressure
High79 °F (Jul 19, 3:00 PM)100% (Jul 10, 5:00 AM)30.07 "Hg (Jul 10, 5:00 AM)
Low45 °F (Jul 13, 4:00 AM)60% (Jul 12, 5:00 PM)29.42 "Hg (Jul 11, 4:00 PM)
Average65 °F88%29.72 "Hg
* Reported Jul 10 5:00 AM — Jul 25 5:00 AM, Yuzhno-Sakhalinsk, Weather by CustomWeather, © 2014

Note: Actual official high and low records may vary slightly from our data, if they occured in-between our weather recording intervals... More about our weather records

Advertising

Yuzhno-Sakhalinsk weather history for previous 24 hours

 ConditionsComfort  
Time TempWeatherWind HumidityBarometerVisibility
5:00 AM
Jul 25
66 °FFog.8 mph100%29.53 "Hg2 mi
4:00 AM68 °FFog.6 mph100%29.53 "Hg2 mi
3:00 AM68 °FFog.6 mph100%29.50 "Hg2 mi
2:00 AM68 °FFog.3 mph100%29.50 "Hg3 mi
1:00 AM68 °FPartly cloudy.3 mph100%29.50 "HgN/A
12:00 AM68 °FPartly cloudy.3 mph94%29.53 "HgN/A
11:00 PM
Jul 24
68 °FPassing clouds.6 mph100%29.53 "HgN/A
10:00 PM68 °FPartly sunny.6 mph94%29.53 "HgN/A
9:30 PM68 °FPartly sunny.8 mph94%29.50 "HgN/A
9:00 PM68 °FPartly sunny.8 mph94%29.50 "HgN/A
8:30 PM70 °FPartly sunny.8 mph88%29.50 "HgN/A
8:00 PM72 °FPartly sunny.8 mph83%29.50 "HgN/A
7:30 PM73 °FPartly sunny.6 mph83%29.50 "HgN/A
7:00 PM72 °FPartly sunny.6 mph88%29.50 "HgN/A
6:30 PM73 °FPartly sunny.8 mph83%29.47 "HgN/A
6:00 PM75 °FScattered clouds.13 mph78%29.47 "HgN/A
5:30 PM73 °FPassing clouds.8 mph83%29.47 "HgN/A
5:00 PM75 °FPassing clouds.13 mph78%29.47 "HgN/A
4:30 PM75 °FScattered clouds.17 mph78%29.47 "HgN/A
4:00 PM75 °FScattered clouds.17 mph78%29.47 "HgN/A
3:30 PM75 °FScattered clouds.17 mph78%29.47 "HgN/A
3:00 PM75 °FScattered clouds.15 mph78%29.47 "HgN/A
2:30 PM75 °FScattered clouds.15 mph78%29.47 "HgN/A
2:00 PM77 °FScattered clouds.13 mph79%29.47 "HgN/A
1:30 PM79 °FScattered clouds.3 mph70%29.47 "HgN/A
1:00 PM77 °FScattered clouds.1 mph74%29.47 "HgN/A
12:30 PM77 °FPartly sunny.1 mph74%29.50 "HgN/A
12:00 PM75 °FPartly sunny.No wind78%29.50 "HgN/A
11:30 AM73 °FPartly sunny.1 mph83%29.50 "HgN/A
11:00 AM70 °FBroken clouds.No wind88%29.50 "HgN/A
10:30 AM70 °FPartly sunny.No wind94%29.50 "Hg5 mi
10:00 AM68 °FPartly sunny.3 mph100%29.53 "Hg4 mi
9:30 AM66 °FFog.3 mph100%29.50 "Hg3 mi
9:00 AM64 °FFog.3 mph100%29.53 "Hg1 mi
8:30 AM64 °FFog.3 mph100%29.53 "Hg1 mi
7:30 AM63 °FDrizzle. Fog.1 mph100%29.53 "Hg1 mi
7:00 AM64 °FDrizzle. Fog.No wind100%29.50 "Hg1 mi
Weather by CustomWeather, © 2014

See weather overviewHow to use our weather pages